Hutchinson, KS

5:10 PM CST on January 18, 2017 (GMT -0600)
Hutchinson Municipal

Weather History for KHUT - August, 2013

Change the Weather History Date:

Thursday, August 29, 2013

  Actual Average Record
Temperature  
Mean Temperature 86 °F -  
Max Temperature 100 °F 88 °F 100 °F (2013)
Min Temperature 73 °F 62 °F 48 °F (2004)
Cooling Degree Days 22    
Growing Degree Days 36 (Base 50)    
Moisture  
Dew Point 65 °F    
Average Humidity 56    
Maximum Humidity 87    
Minimum Humidity 27    
Precipitation  
Precipitation 0.00 in - - ()
Sea Level Pressure  
Sea Level Pressure 29.94 in    
Wind  
Wind Speed 6 mph (SSE)    
Max Wind Speed 17 mph    
Max Gust Speed 24 mph    
Visibility 10 miles    
Events      
Averages and records for this station are not official NWS values.
T = Trace of Precipitation, MM = Missing Value Source: NWS Daily Summary

Daily Weather History Graph

Daily Weather History Graph

Search for Another Location

Airport or City:

Trip Planner

Search our weather history database for the weather conditions in past years. The results will help you decide how hot, cold, wet, or windy it might be!

Date:

Astronomy

Aug. 29, 2013 Rise Set
Actual Time 6:58 AM CDT 8:04 PM CDT
Civil Twilight 6:31 AM CDT 8:32 PM CDT
Nautical Twilight 5:59 AM CDT 9:04 PM CDT
Astronomical Twilight 5:25 AM CDT 9:37 PM CDT
Moon 12:54 AM CDT (8/29) 3:32 PM CDT (8/29)
Length of Visible Light 14h 00m
Length of Day
13h 06m
Last Quarter, 38% of the Moon is Illuminated
Aug 29
Last Quarter
Sep 5
New
Sep 12
First Quarter
Sep 19
Full
Sep 26
Last Quarter

Hourly Weather History & Observations

Time (CDT) Temp. Heat Index Dew Point Humidity Pressure Visibility Wind Dir Wind Speed Gust Speed Precip Events Conditions
12:52 AM 77.0 °F - 69.1 °F 76% 29.96 in 10.0 mi SE 4.6 mph - N/A   Clear
1:52 AM 75.9 °F - 69.1 °F 79% 29.96 in 10.0 mi SE 4.6 mph - N/A   Clear
2:52 AM 75.0 °F - 69.1 °F 82% 29.95 in 10.0 mi SSE 4.6 mph - N/A   Clear
3:52 AM 73.0 °F - 69.1 °F 87% 29.96 in 10.0 mi SSE 3.5 mph - N/A   Clear
4:52 AM 73.0 °F - 68.0 °F 84% 29.95 in 10.0 mi SSE 3.5 mph - N/A   Mostly Cloudy
5:52 AM 73.0 °F - 68.0 °F 84% 29.96 in 10.0 mi SSE 4.6 mph - N/A   Clear
6:52 AM 73.0 °F - 66.9 °F 81% 29.96 in 10.0 mi SE 5.8 mph - N/A   Scattered Clouds
7:52 AM 73.9 °F - 68.0 °F 82% 29.97 in 10.0 mi Calm Calm - N/A   Mostly Cloudy
8:52 AM 79.0 °F - 66.9 °F 66% 29.98 in 10.0 mi SSE 5.8 mph - N/A   Clear
9:52 AM 84.9 °F 87.1 °F 66.0 °F 53% 29.98 in 10.0 mi South 6.9 mph - N/A   Clear
10:52 AM 89.1 °F 91.0 °F 64.9 °F 45% 29.98 in 10.0 mi South 10.4 mph - N/A   Clear
11:52 AM 93.9 °F 95.6 °F 64.0 °F 37% 29.97 in 10.0 mi South 11.5 mph - N/A   Clear
12:52 PM 97.0 °F 98.3 °F 63.0 °F 32% 29.96 in 10.0 mi South 11.5 mph - N/A   Clear
1:52 PM 99.0 °F 100.5 °F 62.1 °F 30% 29.94 in 10.0 mi SSW 12.7 mph - N/A   Clear
2:52 PM 100.0 °F 100.7 °F 60.1 °F 27% 29.92 in 10.0 mi South 17.3 mph 24.2 mph N/A   Clear
3:52 PM 100.0 °F 100.7 °F 60.1 °F 27% 29.91 in 10.0 mi South 13.8 mph 23.0 mph N/A   Clear
4:52 PM 100.0 °F 100.7 °F 60.1 °F 27% 29.90 in 10.0 mi South 12.7 mph - N/A   Clear
5:52 PM 98.1 °F 97.7 °F 59.0 °F 27% 29.89 in 10.0 mi South 11.5 mph - N/A   Clear
6:52 PM 95.0 °F 95.2 °F 61.0 °F 32% 29.89 in 10.0 mi South 9.2 mph - N/A   Clear
7:52 PM 88.0 °F 88.4 °F 62.1 °F 42% 29.90 in 10.0 mi South 6.9 mph - N/A   Clear
8:52 PM 81.0 °F 82.5 °F 64.0 °F 56% 29.91 in 10.0 mi SSE 4.6 mph - N/A   Clear
9:52 PM 78.1 °F - 64.9 °F 64% 29.91 in 9.0 mi Calm Calm - N/A   Clear
10:52 PM 75.9 °F - 63.0 °F 64% 29.91 in 10.0 mi SSE 3.5 mph - N/A   Clear
11:52 PM 75.9 °F - 62.1 °F 62% 29.92 in 10.0 mi SSE 5.8 mph - N/A   Clear